Starlink 31368

operational
NORAD ID: 58970 Int'l Des: 2024-031 Owner: SPXS Country: US Constellation: starlink
LEOCIRCULAR

About Starlink 31368

Description loading...

Live Position

Loading 3D Globe...

Upcoming Passes

Altitude History

Altitude vs Time

uPlot chart will show altitude changes over time

Two-Line Element Set

1 58970U 24031F 25353.85354623 .00001845 00000-0 74440-4 0 9994
2 58970 53.1617 307.2721 0001449 95.7597 264.3569 15.30183457104317
Epoch: Dec 19, 2025 • Age: 9 hours

Current Status

Altitude 475.3 km
Velocity 7.63 km/s
Sub-Earth Point 15.96°N, 138.99°E
Launch Date Feb 15, 2024
Age 1.8 years
Type internet

Technical Details

Classification Payload
Mass 730.00 kg
Dry Mass 700.00 kg
Total Mass 730.00 kg
Length 0.30 m
Diameter 4.10 m
Span 29.00 m
Shape Box + pan
Manufacturer SPXS
Bus Type Starlink V2M
Phase Status In Orbit
Owner/State SPXS/US

Large Constellations

Loading constellations...